Regional Weather Roundup
Issued by NWS Upton, NY

Current Version | Previous Version | Graphics & Text | Print | Product List | Glossary Off
Versions: 1 2 3 4 5 6 7 8 9 10 11 12 13 14 15 16 17 18 19 20 21 22 23 24 25 26 27

000
ASUS41 KOKX 310005
RWROKX

REGIONAL WEATHER ROUNDUP
NATIONAL WEATHER SERVICE NEW YORK NY
800 PM EDT TUE AUG 30 2016

NOTE: "FAIR" INDICATES FEW OR NO CLOUDS BELOW 12,000 FEET WITH NO
SIGNIFICANT WEATHER AND/OR OBSTRUCTIONS TO VISIBILITY.

NYZ071-072-176-178-NJZ106-104-310100-
NEW YORK CITY METRO AREA

CITY           SKY/WX    TMP DP  RH WIND       PRES   REMARKS
Central Park   PTCLDY    76  65  68 CALM      30.07S
LaGuardia APRT MOCLDY    79  67  66 S10       30.04S
Kennedy INTL   MOCLDY    77  72  84 SE10      30.05F
Newark/Liberty MOCLDY    77  67  71 SE6       30.04S
Bronx Bot Gard   N/A     75  63  64 SE13      30.04F
Wall St Helipt PTCLDY    79  68  69 S5        30.05S
Teterboro      PTCLDY    77  64  64 S6        30.03R
$$

NYZ177-179-078>081-310100-
LONG ISLAND NEW YORK

CITY           SKY/WX    TMP DP  RH WIND       PRES   REMARKS
Farmingdale    PTCLDY    75  65  70 S10       30.06S
MacArthur/ISP  MOCLDY    74  63  68 S7        30.05S
Shirley        CLEAR     73  63  70 S6        30.06S
Riverhead      NOT AVBL
Westhampton    CLEAR     71  62  73 S3        30.08R
Southampton      N/A     73  66  78 SW5       30.02S
Bridgehampton  NOT AVBL
East Hampton   FAIR      70  64  79 CALM      30.05S
Montauk          N/A     72  66  81 S3        30.07S
$$

NYZ052-065-067-310100-
HUDSON VALLEY

CITY           SKY/WX    TMP DP  RH WIND       PRES   REMARKS
White Plains   PTCLDY    74  62  66 S7        30.05S
Newburgh       PTCLDY    81  61  50 CALM      30.05
Montgomery     CLOUDY    72  64  76 N3        30.04S
Poughkeepsie   CLEAR     72  61  68 CALM      30.02S
Albany         PTCLDY    73  59  61 CALM      30.03F
$$

NJZ001-105-106-008-010-013-015-019>022-104-310100-
NEW JERSEY

CITY           SKY/WX    TMP DP  RH WIND       PRES   REMARKS
Newark/Liberty MOCLDY    77  67  71 SE6       30.04S
Teterboro      PTCLDY    77  64  64 S6        30.03R
Caldwell       CLOUDY    79  64  60 S6        30.04S
Morristown     MOCLDY    79  64  61 S5        30.04S
Somerville     PTCLDY    72  64  76 CALM      30.02S
Linden         FAIR      78  64  62 CALM      30.06S
Sussex         CLOUDY    71  63  75 CALM      30.05S
Abdover          N/A     69  63  81 CALM      30.06S
Trenton        PTCLDY    78  66  66 SE8       30.04R
Millville      CLEAR     75  72  90 CALM      30.04S
Atlantic City  CLEAR     77  71  82 SE7       30.04S
Wrightstown    NOT AVBL
Toms River     CLEAR     75  70  84 E3        30.05F
Belmar         CLEAR     75  69  81 SE6       30.06F
$$

PAZ047>061-062-071-310100-
EASTERN PENNSYLVANIA

CITY           SKY/WX    TMP DP  RH WIND       PRES   REMARKS
Philadelphia   PTCLDY    81  69  67 CALM      30.03R
Allentown      PTCLDY    78  58  49 CALM      30.04F
Scranton       CLOUDY    75  61  61 CALM      30.07S
$$

CTZ002-004>006-009-010-012-RIZ004-006-007-MAZ004-011-015-310100-
SOUTHERN NEW ENGLAND
 IN CT

CITY           SKY/WX    TMP DP  RH WIND       PRES   REMARKS
Bradley INTL   PTCLDY    75  55  49 W6        30.04R
Hartford       CLEAR     80  58  46 CALM      30.03R
Danbury        CLEAR     70  63  78 SW3       30.06S
Wtrbury/Oxford PTCLDY    72  57  60 CALM      30.09S
Bridgeport     CLEAR     79  64  60 S13       30.04S
Meriden        CLEAR     73  61  65 CALM      30.04S
New Haven      CLEAR     74  64  71 S6        30.05S
Chester        FAIR      73  64  73 S7        30.06S
Groton         CLEAR     74  65  73 SW9       30.05R
Wilimantic     CLEAR     75  61  61 CALM      30.05R

 IN RI

CITY           SKY/WX    TMP DP  RH WIND       PRES   REMARKS
Providence     PTCLDY    73  61  65 S8        30.05R
Block Island   CLEAR     72  65  78 SW9       30.06F
Westerly       CLEAR     73  64  73 S6        30.06S
 IN MA

CITY           SKY/WX    TMP DP  RH WIND       PRES   REMARKS
Boston         PTCLDY    71  63  75 E5        30.03S
Worcester      CLEAR     71  57  61 W6        30.07R
Westfield      CLEAR     72  58  61 CALM      30.03S
Provincetown   CLEAR     70  65  84 S8        30.06R
Nantucket      CLEAR     67  61  81 S10       30.07S
$$

ANZ330-335-338-340-345-350-353-355-310100-
COASTAL MARINE OBSERVATIONS


STATION/POSITION TIME  SKY/WX   TEMP    WIND        PRES    VSBY  WAVE
                                AIR SEA DIR/SP/G                  HT/PER
                 (UTC)          (F)     (DEG/KT/KT) (MB)    (MI)  (FT/S)
NY HARB ENTRANCE 2250            76 78  170/ 12/ 14 1017.3          4/11
20S FIRE ISLAND  2250            76 77  150/ 10/ 12 1017.4          5/11
GREAT SOUTH BAY  2300            75 80  190/ 10/ 12   N/A
23 SSW MONTAUK P 2250            75 79  210/  8/ 10 1018.3          4/11
15 E BARNEGAT LI 2300               78                N/A           4/12
HUDSON CANYON    NOT AVBL
KINGS POINT      2300            77 78              1017.2
EXECUTION ROCKS  2300            79     180/ 10/ 14   N/A
CENTRAL LI SOUND 2315            77 78  190/ 12/ 14   N/A           0
EASTERN LI SOUND 2300            76 71  200/ 12/ 14   N/A
ROBBINS REEF     2300            75                 1016.6
$$


>>>>>>>>>>>>>>>>>>>>>>>>>>>> KEY <<<<<<<<<<<<<<<<<<<<<<<<<<<
>                                                          <
>     SKY/WX - Sky Condition/Present Weather               <
>     TMP    - Temperature in Fahrenheit                   <
>     DP     - Dew Point in Fahrenheit                     <
>     RH     - Relative Humidity in Percent                <
>     WIND   - Direction (from) and Speed in MPH           <
>     PRES   - Mean Sea Level Pressure (inches of Hg)      <
>     WCI    - Wind Chill Index                            <
>     VSB    - VISIBILITY IN MILES                         <
>     HX     - HEAT INDEX                                  <
>     TC     - TEMPERATURE IN CELSIUS                      <
>     VRB    - VARIABLE WIND DIRECTION                     <
>                                                          <
>>>>>>>>>>>>>>>>>>>>>>>>>>>> KEY <<<<<<<<<<<<<<<<<<<<<<<<<<<




USA.gov is the U.S. government's official web portal to all federal, state and local government web resources and services.